This is the latest recevied weather packets stored in our database for station/object WD5U-1. If no packets are shown the sender has not sent any weather packets the latest 10 day(s).
| Time | Temp. | Humidity | Pressure | Rain* | Wind** | Luminosity | Snow |
|---|---|---|---|---|---|---|---|
| 1777623979 | 13.89° C | 87% | 1017.3 hPa | 0 mm | - | - | - |
| 1777623524 | 13.89° C | 86% | 1017.1 hPa | 0 mm | - | - | - |
| 1777623261 | 13.89° C | 86% | 1017 hPa | 0 mm | - | - | - |
| 1777622299 | 13.89° C | 87% | 1016.8 hPa | 0 mm | - | - | - |
| 1777621704 | 13.89° C | 86% | 1017.1 hPa | 0 mm | - | - | - |
| 1777621459 | 13.89° C | 85% | 1017.1 hPa | 0 mm | - | - | - |
| 1777621337 | 13.89° C | 86% | 1017.2 hPa | 0 mm | - | - | - |
| 1777621216 | 13.89° C | 85% | 1017.2 hPa | 0 mm | - | - | - |
| 1777620983 | 13.89° C | 85% | 1017.5 hPa | 0 mm | - | - | - |
| 1777620619 | 13.89° C | 85% | 1018 hPa | 0 mm | - | - | - |
| 1777620497 | 13.89° C | 85% | 1018 hPa | 0 mm | - | - | - |
| 1777620376 | 13.89° C | 85% | 1017.9 hPa | 0 mm | - | - | - |
| 1777619325 | 14.44° C | 83% | 1018.2 hPa | 0 mm | - | - | - |
| 1777618705 | 14.44° C | 81% | 1018.5 hPa | 0 mm | - | - | - |
| 1777618220 | 14.44° C | 81% | 1018.6 hPa | 0 mm | - | - | - |
| 1777617977 | 14.44° C | 81% | 1018.6 hPa | 0 mm | - | - | - |
| 1777617380 | 14.44° C | 80% | 1018.3 hPa | 0 mm | - | - | - |
| 1777616418 | 14.44° C | 80% | 1018.3 hPa | 0 mm | - | - | - |
| 1777615942 | 15° C | 79% | 1018.7 hPa | 0 mm | - | - | - |
| 1777615699 | 15° C | 79% | 1018.8 hPa | 0 mm | - | - | - |
| 1777615345 | 15° C | 79% | 1018.8 hPa | 0 mm | - | - | - |
| 1777613422 | 15° C | 82% | 1018.5 hPa | 0 mm | - | - | - |
| 1777613077 | 15° C | 82% | 1018.5 hPa | 0 mm | - | - | - |
| 1777612582 | 15° C | 81% | 1018.3 hPa | 0 mm | - | - | - |
| 1777612106 | 15° C | 83% | 1018.2 hPa | 0 mm | - | - | - |
* Rain latest hour (hover to see other rain measurements)
** Current wind speed in m/s (hover to see current wind gust speed)